Location: Buckeye Ditch
(40.9104°N, 122.9517°W)
Time: 12:07:54
(UTC+00:00)

Tiros 1 despin weight - Pass Details

Date: 22 May 2025
Orbit: 563 x 601 km, 48.2° (Epoch: 22 June)

Event Time Altitude Azimuth Distance (km) Brightness Sun altitude
Rises 11:37:42 0° 272° (W) 2,814 - -11.8°
Exits shadow 11:39:19 - 277° (W) 2,215 ? -11.5°
Reaches altitude 10° 11:40:07 10° 281° (W) 1,921 ? -11.4°
Maximum altitude 11:44:12 36° 348° (NNW) 949 ? -10.8°
Drops below altitude 10° 11:48:20 10° 56° (NE) 1,939 ? -10.2°
Sets 11:50:47 0° 65° (ENE) 2,846 ? -9.8°
